Regional Weather Roundup
Issued by NWS

Home | Current Version | Previous Version | Graphics & Text | Print | Product List | Glossary On
Versions: 1 2 3 4 5 6 7 8 9 10 11 12 13 14 15 16 17 18 19 20 21 22 23 24 25 26 27 28 29 30 31 32 33 34 35 36 37 38 39 40 41 42 43 44 45 46 47 48 49 50
000
ASUS43 KOAX 271902
RWRNE

WEATHER ROUNDUP FOR NEBRASKA
NATIONAL WEATHER SERVICE OMAHA NE
100 PM CST FRI FEB 27 2015

NOTES: SATELLITE DATA IS BEING USED TO AUGMENT CLOUD COVER ABOVE
       12000 FEET.
       "FAIR" INDICATES FEW OR NO CLOUDS BELOW 12,000 FEET WITH NO
       SIGNIFICANT WEATHER AND/OR OBSTRUCTIONS TO VISIBILITY.

  * THESE STATIONS DO NOT REPORT WEATHER SUCH AS RAIN...SNOW OR FOG.

NEZ001>004-019>022-054>056-272000-
NEBRASKA PANHANDLE

CITY           SKY/WX    TMP DP  RH WIND       PRES   REMARKS
SCOTTSBLUFF    CLOUDY    20   7  57 SE21      30.09F WCI   4
ALLIANCE       MOSUNNY   20   8  60 S25G35    30.11F WCI   2
CHADRON        MOSUNNY   23  11  60 S20       30.13F WCI   8
KIMBALL        LGT SNOW  17  10  73 S20G25    30.01F WCI   0
SIDNEY         CLOUDY    18   9  68 S23       30.11F WCI   0
$$

NEZ057>060-069>072-079>082-272000-
SOUTHWEST NEBRASKA

CITY           SKY/WX    TMP DP  RH WIND       PRES   REMARKS
NORTH PLATTE   CLOUDY    20  -1  40 S14       30.32F WCI   7
IMPERIAL       LGT SNOW  19   9  65 S18       30.25F WCI   4
MCCOOK         CLOUDY    22   4  46 SE15      30.36F WCI   9
$$

NEZ005>010-023>029-035>040-094-272000-
NORTH CENTRAL NEBRASKA

CITY           SKY/WX    TMP DP  RH WIND       PRES   REMARKS
VALENTINE      SUNNY     21   0  39 S14       30.29F WCI   8
AINSWORTH      SUNNY     20  -2  37 S12G18    30.31F WCI   8
BROKEN BOW     SUNNY     19   0  43 S9G18     30.36F WCI   8
ORD            SUNNY     19  -4  36 S10G18    30.42F WCI   7
$$

NEZ041-046>049-061>064-073>077-083>087-272000-
SOUTH CENTRAL NEBRASKA

CITY           SKY/WX    TMP DP  RH WIND       PRES   REMARKS
GRAND ISLAND   SUNNY     18  -2  41 VRB5      30.48F WCI  11
AURORA         SUNNY     18  -4  38 S8        30.48F WCI   8
HASTINGS       SUNNY     17  -4  39 VRB5      30.45F WCI  10
HEBRON         PTSUNNY   17  -3  41 CALM      30.52F
KEARNEY *      SUNNY     18  -4  38 S10       30.43F WCI   6
$$

NEZ011>018-030>034-042>045-272000-
NORTHEAST NEBRASKA

CITY           SKY/WX    TMP DP  RH WIND       PRES   REMARKS
NORFOLK        SUNNY     16   0  49 VRB7      30.48F WCI   6
BLAIR          SUNNY     12   0  58 CALM      30.56F
COLUMBUS *     SUNNY     16  -6  38 S6        30.53F WCI   7
TEKAMAH        SUNNY     13   3  64 CALM      30.59F
$$

NEZ050>053-065>068-078-088>093-272000-
SOUTHEAST NEBRASKA

CITY           SKY/WX    TMP DP  RH WIND       PRES   REMARKS
LINCOLN        SUNNY     17  -3  41 VRB3      30.57F
OMAHA EPPLEY   MOSUNNY   13   0  56 SE3       30.60F
FALLS CITY     SUNNY     16  -2  45 CALM      30.60F
NEBRASKA CITY  SUNNY     16  -3  42 E3        30.58F
$$

NEZ044-045-051>053-067-272000-
OMAHA AREA

CITY           SKY/WX    TMP DP  RH WIND       PRES   REMARKS
OMAHA EPPLEY   MOSUNNY   13   0  56 SE3       30.60F
BLAIR          SUNNY     12   0  58 CALM      30.56F
OFFUTT AFB     SUNNY     14  -1  51 S5        30.58F WCI   7
WAHOO          FAIR      15  -2  47 S5        30.56F WCI   7
$$


USA.gov is the U.S. government's official web portal to all federal, state and local government web resources and services.